EHI
0 0 0 0 0 0 0 0 0 0 0 0 0 0 0 0 0 0 0 0 0 0 0 0 0 0 0 0 0 0 0 0 0 0 0 0 0 0 0 0 0 0 0
0 0 0 0 0 0 0 0 0 0 0 0 0 0 0 0 0 0 0 0 0 0 0 0 0 0 0 0 0 0 0 0 0 0 0 0 0 0 0 0 0 0 0
0 0 0 0 0 0 0 0 0 0 0 0 0 0 0 0 0 0 0 0 0 0 0 0 0 0 0 0 0 0 0 0 0 0 0 0 0 0 0 0 0 0 0
0 0 0 0 0 0 0 0 0 0 0 0 0 0 0 0 0 0 0 0 0 0 0 0 0 0 0 0 0 0 0 0 0 0 0 0 0 0 0 0 0 0 0
0 0 0 0 0 0 0 0 0 0 0 0 0 0 0 0 0 0 0 0 0 0 0 0 0 0 0 0 0 0 0 0 0 0 0 0 0 0 0 0 0 0 0
0 0 0 0 0 0 0 0 0 0 0 0 0 0 0 0 0 0 0 0 0 0 0 0 0 0 0 0 0 0 0 0 0 0 0 0 0 0 0 0 0 0 0
0 0 0 0 0 0 0 0 0 0 0 0 0 0 0 0 0 0 0 0 0 0 0 0 0 0 0 0 0 0 0 0 0 0 0 0 0 0 0 0 0 0 0
0 0 0 0 0 0 0 0 0 0 0 0 0 0 0 0 0 0 0 0 0 0 0 0 0 0 0 0 0 0 0 0 0 0 0 0 0 0 0 0 0 0 0
0 0 0 0 0 0 0 0 0 0 0 0 0 0 0 0 0 0 0 0 0 0 0 0 0 0 0 0 0 0 0 0 0 0 0 0 0 0 0 0 0 0 0
0 0 0 0 0 0 0 0 0 0 0 0 0 0 0 0 0 0 0 0 0 0 0 0 0 0 0 0 0 0 0 0 0 0 0 0 0 0 0 0 0 0 0
0 0 0 0 0 0 0 0 0 0 0 0 0 0 0 0 0 0 0 0 0 0 0 0 0 0 0 0 0 0 0 0 0 0 0 0 0 0 0 0 0 0 0
0 0 0 0 0 0 0 0 0 0 0 0 0 0 0 0 0 0 0 0 0 0 0 0 0 0 0 0 0 0 0 0 0 0 0 0 0 0 0 0 0 0 0
0 0 0 0 0 0 0 0 0 0 0 0 0 0 0 0 0 0 0 0 0 0 0 0 0 0 0 0 0 0 0 0 0 0 0 0 0 0 0 0 0 0 0
0 0 0 0 0 0 0 0 0 0 0 0 0 0 0 0 0 0 0 0 0 0 0 0 0 0 0 0 0 0 0 0 0 0 0 0 0 0 0 0 0 0 0
0 0 0 0 0 0 0 0 0 0 0 0 0 0 0 0 0 0 0 0 0 0 0 0 0 0 0 0 0 0 0 0 0 0 0 0 0 0 0 0 0 0 0
0 0 0 0 0 0 0 0 0 0 0 0 0 0 0 0 0 0 0 0 0 0 0 0 0 0 0 0 0 0 0 0 0 0 0 0 0 0 0 0 0 0 0
0 0 0 0 0 0 0 0 0 0 0 0 0 0 0 0 0 0 0 0 0 0 0 0 0 0 0 0 0 0 0 0 0 0 0 0 0 0 0 0 0 0 0
0 0 0 0 0 0 0 0 0 0 0 0 0 0 0 0 0 0 0 0 0 0 0 0 0 0 0 0 0 0 0 0 0 0 0 0 0 0 0 0 0 0 0
0 0 0 0 0 0 0 0 0 0 0 0 0 0 0 0 0 0 0 0 0 0 0 0 0 0 0 0 0 0 0 0 0 0 0 0 0 0 0 0 0 0 0
0 0 0 0 0 0 0 0 0 0 0 0 0 0 0 0 0 0 0 0 0 0 0 0 0 0 0 0 0 0 0 0 0 0 0 0 0 0 0 0 0 0 0
0 0 0 0 0 0 0 0 0 0 0 0 0 0 0 0 0 0 0 0 0 0 0 0 0 0 0 0 0 0 0 0 0 0 0 0 0 0 0 0 0 0 0
0 0 0 0 0 0 0 0 0 0 0 0 0 0 0 0 0 0 0 0 0 0 0 0 0 0 0 0 0 0 0 0 0 0 0 0 0 0 0 0 0 0 0
0 0 0 0 0 0 0 0 0 0 0 0 0 0 0 0 0 0 0 0 0 0 0 0 0 0 0 0 0 0 0 0 0 0 0 0 0 0 0 0 0 0 0
0 0 0 0 0 0 0 0 0 0 0 0 0 0 0 0 0 0 0 0 0 0 0 0 0 0 0 0 0 0 0 0 0 0 0 0 0 0 0 0 0 0 0
0 0 0 0 0 0 0 0 0 0 0 0 0 0 0 0 0 0 0 0 0 0 0 0 0 0 0 0 0 0 0 0 0 0 0 0 0 0 0 0 0 0 0
0 0 0 0 0 0 0 0 0 0 0 0 0 0 0 0 0 0 0 0 0 0 0 0 0 0 0 0 0 0 0 0 0 0 0 0 0 0 0 0 0 0 0
Wind_Speed
13 12 12 11 11 10 9 8 7 7 7 7 7 7 7 7 7 7 6 6 7 5 5 5 4 2 2 2 2 1 1 1 2 4 3 4 5 7 9 7 7 7 8
12 13 12 11 10 10 9 8 7 7 7 7 7 8 8 8 8 8 7 6 5 5 4 3 3 2 2 2 1 2 2 2 2 4 4 4 6 7 7 8 9 8 7
12 12 12 10 10 9 9 8 8 7 7 8 9 9 9 8 8 7 6 6 5 4 3 3 3 3 2 2 2 2 2 3 2 3 6 4 5 6 6 8 9 7 9
11 12 11 10 9 9 8 8 8 7 8 9 9 8 8 7 7 6 5 5 5 5 4 4 4 3 3 4 3 4 3 3 4 4 6 6 6 6 5 6 8 6 7
11 11 9 8 8 8 8 7 7 8 8 8 8 7 6 5 5 5 4 5 5 5 5 5 5 6 6 3 3 3 3 3 4 5 6 7 7 6 6 5 8 8 8
10 9 8 8 7 7 7 6 7 7 6 6 6 5 5 4 5 6 5 4 4 5 5 6 6 6 7 7 7 7 7 6 6 5 7 9 10 9 8 8 8 8 6
8 8 7 7 6 6 6 6 6 5 5 5 4 4 3 2 2 4 7 4 4 5 5 5 5 6 7 4 6 10 11 14 13 8 9 10 10 9 9 11 9 8 9
7 6 6 6 6 5 5 5 4 3 3 2 2 2 2 2 1 2 6 5 4 5 5 5 6 7 6 5 5 7 8 9 11 8 8 10 10 9 8 8 8 7 7
6 6 5 5 5 5 5 3 2 2 2 1 1 2 2 3 4 2 3 3 4 6 6 7 7 6 8 9 6 8 10 11 11 12 13 13 15 15 10 5 5 5 7
5 4 4 4 5 4 3 2 1 1 0 1 1 2 3 3 4 5 2 2 4 5 6 7 9 9 11 12 7 7 10 11 10 11 11 10 8 8 8 4 4 5 6
4 4 4 4 4 3 2 1 1 1 1 2 2 2 2 2 2 4 5 2 3 5 5 5 6 12 15 16 12 7 11 11 9 8 7 7 6 4 5 4 4 4 5
4 4 3 3 2 3 2 1 1 2 2 3 3 3 3 3 3 5 7 7 6 4 5 5 7 14 16 16 11 10 13 10 5 5 5 5 4 4 4 5 6 5 5
3 2 2 2 1 1 1 1 1 2 2 2 2 2 2 2 4 7 8 10 10 5 5 11 14 16 14 10 11 13 10 5 4 4 4 4 4 4 4 5 6 6 6
2 1 1 1 1 1 0 1 2 2 2 2 2 1 2 3 3 4 5 5 8 7 6 10 14 12 9 9 9 7 5 4 3 3 4 4 3 3 3 3 3 4 4
1 1 2 2 2 1 0 0 1 1 3 3 2 1 1 3 4 7 6 5 5 6 7 5 4 6 7 7 7 6 5 4 3 3 3 3 3 3 3 3 3 3 3
1 1 2 2 1 1 2 2 4 2 4 5 4 2 2 4 8 9 10 11 11 10 5 3 5 5 6 6 7 7 5 5 4 3 3 3 3 3 4 4 3 3 4
2 2 2 1 1 2 2 3 1 1 1 1 1 2 3 6 8 9 10 11 9 7 3 4 5 6 6 6 6 5 4 5 4 3 3 4 4 3 3 4 4 3 3
2 2 1 1 1 2 3 3 3 2 1 2 3 5 6 8 9 9 10 7 5 5 3 5 6 6 6 6 6 5 5 5 4 4 4 4 4 3 3 4 3 3 3
2 1 0 1 1 2 3 3 2 2 1 0 2 3 5 6 6 7 6 3 3 5 5 5 5 6 5 5 5 5 4 4 5 5 5 5 4 4 4 4 4 4 2
1 2 3 2 2 3 3 3 3 2 2 0 1 2 3 3 3 4 4 3 4 4 5 5 5 5 5 5 5 5 5 5 6 5 5 5 5 4 4 4 3 2 2
0 2 5 4 3 3 3 3 3 2 2 1 1 2 2 2 3 4 4 4 4 5 5 5 5 5 5 5 5 6 6 5 5 5 6 6 6 5 4 3 3 2 2
1 3 3 3 3 3 3 3 3 2 2 1 1 2 3 2 3 3 4 4 4 4 4 4 4 4 4 5 5 6 6 6 6 6 7 6 6 5 4 4 3 3 2
3 4 3 3 2 3 3 2 2 2 2 2 1 2 2 3 3 4 4 4 4 4 4 4 4 5 5 5 4 4 5 6 6 6 6 6 5 5 4 4 5 4 4
3 4 4 3 3 3 3 3 3 3 3 2 2 2 2 3 3 4 4 4 4 4 4 4 5 7 10 8 6 5 5 6 7 5 5 4 5 4 4 4 4 5 5
3 4 4 4 4 3 3 3 3 3 3 2 2 2 2 3 4 4 4 4 4 5 6 6 5 7 10 11 10 9 11 11 8 6 5 4 5 5 5 5 5 5 6
3 4 4 4 4 4 4 4 3 3 2 2 2 2 2 3 4 4 4 4 4 5 6 6 8 9 11 10 12 13 12 11 10 9 6 4 6 6 6 5 6 6 6
Wind_Direction
85 87 88 89 92 93 94 94 94 90 87 85 84 79 73 65 60 62 61 62 63 52 48 55 44 43 30 16 27 30 33 163 246 272 266 285 299 303 307 300 296 290 289
88 90 89 89 89 89 87 85 84 81 79 79 77 74 70 64 58 60 59 53 55 48 38 38 15 13 8 350 345 326 299 269 247 288 291 294 291 292 289 292 296 296 288
88 88 86 83 81 80 77 74 73 73 70 71 76 77 74 68 62 56 52 42 32 21 9 2 340 350 327 304 299 294 286 292 277 282 291 287 285 287 291 289 287 284 287
87 86 83 79 78 77 75 71 71 73 78 81 85 84 79 72 63 51 44 32 13 358 348 340 329 310 284 280 281 280 278 291 291 289 291 293 287 285 280 287 296 288 288
89 86 84 83 80 78 75 71 70 73 85 93 95 89 83 75 64 56 32 18 359 345 337 329 319 319 322 303 287 275 276 283 289 290 293 296 297 301 297 287 295 296 288
89 88 85 83 79 78 78 75 75 77 83 89 95 98 89 85 74 55 36 7 344 334 324 318 312 311 321 323 319 320 312 301 293 284 290 294 296 294 294 296 297 300 296
91 91 87 85 82 80 86 81 80 81 89 96 107 114 119 138 92 38 18 14 345 333 324 317 319 317 320 303 307 314 310 304 292 279 280 283 289 292 296 298 295 294 292
88 87 85 86 86 83 82 81 77 80 95 112 136 155 173 214 205 11 6 9 349 337 329 320 314 309 306 298 296 302 299 295 289 282 264 272 279 284 284 285 288 290 282
92 92 93 96 98 92 85 77 71 82 92 148 194 193 206 241 244 272 354 351 334 326 323 325 323 314 306 309 303 298 301 300 297 285 276 279 282 286 286 288 295 301 304
103 104 103 103 107 105 104 92 75 102 170 249 258 242 227 239 248 257 300 333 321 318 317 315 317 313 310 310 298 288 294 297 303 310 309 307 300 297 302 282 276 294 301
109 100 95 104 119 125 115 93 72 35 7 339 321 311 298 271 270 287 310 311 297 305 308 309 306 309 311 308 303 277 272 283 295 297 300 303 308 309 308 301 279 266 287
101 101 104 124 139 138 125 40 30 42 31 6 4 354 354 6 24 354 348 339 334 302 294 296 299 307 310 309 307 296 299 300 289 298 305 308 311 310 305 304 299 289 271
101 115 127 146 164 152 154 148 47 58 68 41 36 19 359 5 359 358 351 342 339 327 295 303 308 309 312 311 310 314 317 312 309 311 311 303 293 293 303 311 310 309 306
128 177 204 213 250 264 229 171 141 126 106 78 50 21 341 328 331 335 331 326 327 324 314 312 311 310 315 313 315 320 317 307 301 297 298 298 308 318 314 309 308 318 324
161 239 260 254 241 237 55 72 164 184 174 156 168 191 314 317 304 313 314 310 307 300 309 310 320 331 336 334 331 326 323 330 329 315 310 314 317 319 310 309 309 317 325
165 261 266 267 251 178 138 62 46 99 126 140 158 171 257 276 306 320 323 320 318 318 318 318 323 326 325 324 326 326 323 325 319 310 307 302 301 303 306 309 317 323 328
202 238 258 257 209 177 160 155 147 20 6 301 268 286 299 310 321 326 328 328 329 338 340 321 318 319 320 320 320 316 308 310 311 314 306 299 296 297 299 306 315 321 324
224 244 226 222 188 164 162 168 163 167 237 310 302 296 309 317 323 328 334 340 341 345 330 319 319 320 319 318 319 317 316 324 329 325 315 305 298 296 301 305 309 311 320
235 237 194 129 127 134 139 139 142 151 151 283 319 324 326 328 331 338 345 352 331 327 327 325 322 323 323 323 322 323 327 329 331 328 325 320 312 306 304 304 307 313 322
277 200 138 122 115 115 117 124 130 138 144 166 309 316 332 353 353 341 342 333 330 327 327 328 329 332 334 335 336 337 339 340 342 338 330 328 325 318 309 310 315 319 326
120 126 122 110 117 124 128 139 150 152 158 182 289 324 352 353 337 330 330 330 330 330 331 333 336 342 346 347 347 347 347 341 338 335 333 332 333 332 330 330 327 331 339
136 138 131 129 128 127 136 144 146 147 150 136 346 351 9 4 341 334 332 331 331 332 335 342 347 348 347 348 347 345 344 340 337 335 331 330 333 339 345 350 354 3 13
116 133 133 134 129 127 116 117 119 116 108 91 64 28 8 356 343 339 338 339 346 352 356 2 1 355 349 342 339 339 334 323 312 307 313 322 333 342 352 0 7 15 20
112 131 136 132 126 123 119 116 113 111 104 94 71 32 4 349 343 344 347 349 359 4 5 7 6 358 353 351 345 340 331 316 306 298 305 324 343 352 1 10 14 21 29
118 127 128 131 129 124 117 110 108 106 99 89 64 28 0 353 352 353 356 7 19 19 14 9 5 1 354 350 350 343 334 334 341 339 336 355 9 13 20 23 28 33 36
118 127 128 125 123 122 120 116 112 112 108 91 62 32 10 5 5 6 9 21 29 20 13 6 3 5 0 354 347 342 342 348 353 357 359 14 28 26 26 31 36 39 42